Weather History for Nuiqsut, AK

Change the Weather History Date:

Saturday, April 6, 2013

  Actual Average (PAKU) Record (PAKU)
Temperature  
Mean Temperature -26 °F -  
Max Temperature -20 °F 2 °F 28 °F (1989)
Min Temperature -32 °F -7 °F -36 °F (1986)
Degree Days  
Heating Degree Days 91    
Moisture  
Dew Point -29 °F    
Average Humidity 84    
Maximum Humidity 100    
Minimum Humidity 69    
Precipitation  
Precipitation 0.00 in - - ()
Sea Level Pressure  
Sea Level Pressure 30.33 in    
Wind  
Wind Speed 3 mph (NNE)    
Max Wind Speed 8 mph    
Max Gust Speed -    
Visibility 8 miles    
Events      
Averages and records for this station are not official NWS values.
T = Trace of Precipitation, MM = Missing Value Source: NWS Daily Summary

Daily Weather History Graph

Daily Weather History Graph

Search for Another Location

Airport:

Trip Planner

Search our weather history database for the weather conditions in past years. The results will help you decide how hot, cold, wet, or windy it might be!

Date:

Astronomy

Apr. 06, 2013 Rise Set
Actual Time 6:39 AM AKDT 9:35 PM AKDT
Civil Twilight 5:28 AM AKDT 10:47 PM AKDT
Nautical Twilight 3:25 AM AKDT 12:59 AM AKDT
Astronomical Twilight Sun does not rise Sun does not rise
Moon 6:22 AM AKDT (4/6) 4:35 PM AKDT (4/6)
Length of Visible Light 17h 18m
Length of Day
14h 55m
Waning Crescent, 14% of the Moon is Illuminated
Apr 6
Waning Crescent
Apr 10
New
Apr 18
First Quarter
Apr 25
Full
May 2
Last Quarter

Hourly Weather History & Observations

Time (AKDT) Temp. Windchill Dew Point Humidity Pressure Visibility Wind Dir Wind Speed Gust Speed Precip Events Conditions
12:53 AM -20.9 °F -36.4 °F -24.0 °F 86% 30.49 in 10.0 mi NNE 5.8 mph - N/A   Clear
1:53 AM -22.0 °F -41.0 °F -26.0 °F 82% 30.47 in 10.0 mi NNE 8.1 mph - N/A   Clear
2:53 AM -24.0 °F -41.8 °F -27.0 °F 86% 30.46 in 10.0 mi NE 6.9 mph - N/A   Clear
3:53 AM -27.9 °F -39.8 °F -31.0 °F 85% 30.45 in 10.0 mi NNE 3.5 mph - N/A   Clear
4:53 AM -27.0 °F -45.5 °F -29.9 °F 86% 30.43 in 10.0 mi NNE 6.9 mph - N/A   Clear
5:53 AM -29.0 °F -46.0 °F -32.1 °F 85% 30.42 in 10.0 mi NNE 5.8 mph - N/A   Clear
6:51 AM -29.2 °F -41.2 °F - N/A% 30.40 in 10.0 mi NNE 3.5 mph - N/A   Partly Cloudy
6:53 AM -29.9 °F -42.0 °F - N/A% 30.41 in 10.0 mi NNE 3.5 mph - N/A   Partly Cloudy
7:53 AM -29.9 °F - - N/A% 30.39 in 10.0 mi Calm Calm - N/A   Clear
8:53 AM -32.1 °F - - N/A% 30.38 in 9.0 mi Calm Calm - N/A   Clear
9:53 AM -29.9 °F - - N/A% 30.36 in 10.0 mi Calm Calm - N/A   Clear
10:44 AM -31.0 °F - - N/A% 30.35 in 9.0 mi Calm Calm - N/A   Mostly Cloudy
10:53 AM -31.0 °F - - N/A% 30.36 in 10.0 mi Calm Calm - N/A   Mostly Cloudy
11:10 AM -29.2 °F - - N/A% 30.35 in 6.0 mi Calm Calm - N/A   Haze
11:24 AM -27.4 °F - -32.8 °F 75% 30.35 in 1.8 mi Calm Calm - N/A   Partly Cloudy
11:33 AM -29.2 °F - -29.2 °F 100% 30.35 in 4.0 mi Calm Calm - N/A   Partly Cloudy
11:42 AM -29.2 °F - - N/A% 30.35 in 1.8 mi Calm Calm - N/A   Scattered Clouds
11:50 AM -29.2 °F - -29.2 °F 100% 30.34 in 3.0 mi Calm Calm - N/A   Partly Cloudy
11:51 AM -29.0 °F - -29.9 °F 95% 30.35 in 4.0 mi Calm Calm - N/A   Partly Cloudy
12:53 PM -26.0 °F - -29.0 °F 85% 30.34 in 10.0 mi Calm Calm - N/A   Clear
1:18 PM -25.6 °F - -27.4 °F 91% 30.33 in 5.0 mi Calm Calm - N/A   Partly Cloudy
1:53 PM -25.1 °F -39.1 °F -27.9 °F 86% 30.33 in 10.0 mi SSW 4.6 mph - N/A   Clear
2:19 PM -25.6 °F -37.1 °F -27.4 °F 91% 30.31 in 10.0 mi WSW 3.5 mph - N/A   Partly Cloudy
2:53 PM -22.0 °F - -25.1 °F 86% 30.32 in 10.0 mi Calm Calm - N/A   Clear
3:53 PM -20.9 °F - -24.0 °F 86% 30.30 in 10.0 mi Calm Calm - N/A   Clear
4:53 PM -20.9 °F - -24.0 °F 86% 30.28 in 3.0 mi Calm Calm - N/A   Scattered Clouds
5:53 PM -22.0 °F - -25.1 °F 86% 30.27 in 7.0 mi Calm Calm - N/A   Clear
6:43 PM -22.0 °F - -25.6 °F 83% 30.26 in 10.0 mi Calm Calm - N/A   Mostly Cloudy
6:53 PM -22.0 °F - -26.0 °F 82% 30.27 in 10.0 mi Calm Calm - N/A   Overcast
7:53 PM -25.1 °F - -29.0 °F 82% 30.26 in 10.0 mi Calm Calm - N/A   Scattered Clouds
8:53 PM -26.0 °F -37.5 °F -29.9 °F 81% 30.25 in 4.0 mi South 3.5 mph - 0.00 in   Mostly Cloudy
8:59 PM -25.6 °F - -31.0 °F 76% 30.24 in 2.5 mi Calm Calm - 0.00 in   Mostly Cloudy
9:06 PM -25.6 °F - -31.0 °F 76% 30.24 in 7.0 mi Calm Calm - 0.00 in   Mostly Cloudy
9:23 PM -27.4 °F -39.2 °F -31.0 °F 83% 30.24 in 10.0 mi South 3.5 mph - 0.00 in   Scattered Clouds
9:53 PM -29.0 °F -41.0 °F -32.1 °F 85% 30.24 in 7.0 mi SSW 3.5 mph - 0.00 in   Clear
10:15 PM -27.4 °F - -31.0 °F 83% 30.23 in 10.0 mi Calm Calm - N/A   Mostly Cloudy
10:43 PM -27.4 °F - -34.6 °F 69% 30.23 in 9.0 mi Calm Calm - 0.00 in   Scattered Clouds
10:53 PM -27.9 °F - -34.1 °F 73% 30.23 in 10.0 mi Calm Calm - 0.00 in   Clear
11:53 PM -29.9 °F - - N/A% 30.23 in 10.0 mi Calm Calm - N/A   Clear